Regional Weather Roundup
Issued by NWS Charleston, WV

Home | Current Version | Previous Version | Graphics & Text | Print | Product List | Glossary On
Versions: 1 2 3 4 5 6 7 8 9 10 11 12 13 14 15 16 17 18 19 20 21 22 23 24 25 26 27 28 29 30 31 32 33 34 35 36 37 38 39 40 41 42 43 44 45 46 47 48 49 50
000
ASUS41 KRLX 160610
RWRRLX
West Virginia Regional Weather Roundup
National Weather Service Charleston WV
100 AM EST SAT DEC 16 2017

Note: "fair" indicates few or no clouds below 12,000 feet with no
significant weather and/or obstructions to visibility.

WVZ003-160700-
Northern Panhandle of West Virginia

CITY           SKY/WX    TMP DP  RH WIND       PRES   REMARKS
WHEELING       CLOUDY    28  16  60 SW15G22   30.01F
$$

WVZ009-160700-
Northwest West Virginia

CITY           SKY/WX    TMP DP  RH WIND       PRES   REMARKS
PARKERSBURG    CLOUDY    31  19  61 W6        30.13F
$$

WVZ006-160700-
Western West Virginia

CITY           SKY/WX    TMP DP  RH WIND       PRES   REMARKS
HUNTINGTON     CLOUDY    33  20  58 SW7       30.14S
$$

WVZ015-160700-
West Central West Virginia

CITY           SKY/WX    TMP DP  RH WIND       PRES   REMARKS
CHARLESTON     CLOUDY    33  19  56 SW9       30.14R
$$

WVZ022-031-160700-
North Central West Virginia

CITY           SKY/WX    TMP DP  RH WIND       PRES   REMARKS
CLARKSBURG     CLOUDY    31  18  58 W12G17    30.08R
MORGANTOWN     CLOUDY    28  18  66 SW9       30.06R
$$

WVZ025-035-042-045-160700-
Southern West Virginia

CITY           SKY/WX    TMP DP  RH WIND       PRES   REMARKS
BECKLEY        CLOUDY    27  17  66 NW9G21    30.07R
LOGAN          CLOUDY    30  19  64 VRB7G14   30.12S
BLUEFIELD      CLOUDY    25  16  68 W13G25    30.06R
LEWISBURG      CLOUDY    28  18  64 W7G18     30.05F
$$

WVZ047-160700-
Northern Mountains of West Virginia

CITY           SKY/WX    TMP DP  RH WIND       PRES   REMARKS
ELKINS         FLURRIES  27  16  63 W9G16     30.04R
$$

WVZ052-160700-
Eastern Panhandle of West Virginia

CITY           SKY/WX    TMP DP  RH WIND       PRES   REMARKS
MARTINSBURG    CLOUDY    34  16  47 W13G24    30.00R
PETERSBURG     CLOUDY    32  16  52 W7        30.03R
$$



USA.gov is the U.S. government's official web portal to all federal, state and local government web resources and services.